TimeEST,TemperatureF,Dew PointF,Humidity,Sea Level PressureIn,VisibilityMPH,Wind Direction,Wind SpeedMPH,Gust SpeedMPH,PrecipitationIn,Events,Conditions,WindDirDegrees,DateUTC
12:51 AM,3.9,-9.9,53,30.07,10.0,Calm,Calm,-,N/A,,Clear,0,2013-01-03 05:51:00
1:51 AM,3.0,-9.0,57,30.09,10.0,West,5.8,-,N/A,,Clear,260,2013-01-03 06:51:00
2:51 AM,3.9,-9.0,55,30.09,10.0,WNW,6.9,-,N/A,,Clear,290,2013-01-03 07:51:00
3:51 AM,3.9,-8.0,58,30.09,10.0,WNW,11.5,-,N/A,,Clear,300,2013-01-03 08:51:00
4:51 AM,1.9,-9.0,60,30.08,10.0,NNW,3.5,-,N/A,,Clear,330,2013-01-03 09:51:00
5:51 AM,1.0,-9.0,63,30.09,10.0,West,6.9,-,N/A,,Clear,280,2013-01-03 10:51:00
6:51 AM,1.0,-9.0,63,30.09,10.0,WNW,5.8,-,N/A,,Clear,290,2013-01-03 11:51:00
7:51 AM,1.0,-9.0,63,30.10,10.0,WNW,8.1,-,N/A,,Clear,290,2013-01-03 12:51:00
8:51 AM,5.0,-7.1,58,30.10,10.0,NW,9.2,-,N/A,,Clear,320,2013-01-03 13:51:00
9:51 AM,10.0,-2.0,58,30.08,10.0,West,5.8,-,N/A,,Clear,280,2013-01-03 14:51:00
10:45 AM,10.4,-0.4,62,30.06,10.0,NW,6.9,-,N/A,,Clear,310,2013-01-03 15:45:00
11:45 AM,12.2,-0.4,57,30.04,10.0,WNW,11.5,-,N/A,,Clear,300,2013-01-03 16:45:00
12:45 PM,15.8,-0.4,49,30.01,10.0,NW,9.2,-,N/A,,Clear,310,2013-01-03 17:45:00
12:51 PM,-9999,-9999,N/A,-9999,-9999.0,North,-9999.0,-,N/A,,Unknown,0,2013-01-03 17:51:00
1:45 PM,19.4,-2.2,39,30.00,10.0,NW,6.9,-,N/A,,Clear,310,2013-01-03 18:45:00
1:51 PM,21.9,1.0,40,30.00,10.0,WNW,5.8,-,N/A,,Unknown,300,2013-01-03 18:51:00
2:51 PM,21.2,-0.4,39,29.98,10.0,WSW,4.6,-,N/A,,Clear,240,2013-01-03 19:51:00
3:51 PM,21.0,-2.0,36,29.98,10.0,West,3.5,-,N/A,,Clear,280,2013-01-03 20:51:00
4:51 PM,19.9,-0.9,40,29.98,10.0,West,4.6,-,N/A,,Clear,260,2013-01-03 21:51:00
5:51 PM,19.0,-0.0,43,29.98,10.0,West,3.5,-,N/A,,Partly Cloudy,260,2013-01-03 22:51:00
6:51 PM,16.0,-0.0,49,29.99,10.0,WNW,4.6,-,N/A,,Clear,290,2013-01-03 23:51:00
7:51 PM,12.9,-0.9,54,30.00,10.0,West,5.8,-,N/A,,Clear,260,2013-01-04 00:51:00
8:51 PM,12.0,-0.9,56,29.99,10.0,Calm,Calm,-,N/A,,Clear,0,2013-01-04 01:51:00
9:51 PM,15.1,-0.9,49,29.99,10.0,West,4.6,-,N/A,,Partly Cloudy,280,2013-01-04 02:51:00
10:51 PM,12.9,-0.9,54,29.98,10.0,Calm,Calm,-,N/A,,Clear,0,2013-01-04 03:51:00
11:51 PM,12.0,1.0,61,29.95,10.0,SW,4.6,-,N/A,,Clear,230,2013-01-04 04:51:00